Home   Weather   Cupertino   Past weeks
Flag for USA

Past Weather in Cupertino, California, USA — Yesterday and Last 2 Weeks

Now
56 °F

Sunny.


Feels Like: 54 °F
Forecast: 61 / 47 °F
Wind: 8 mph from Northwest

Location: Moffett Field

Current Time: Mar 23, 2019 at 10:49:50 am

Latest Report: Mar 23, 2019 at 9:56 am


Visibility: 10 mi

Pressure: 30.21 "Hg

Humidity: 72%

Dew Point: 47 °F

Location of CupertinoLocation

Past Weather in Cupertino — Graph

°F

Cupertino Temperature Yesterday

Maximum temperature yesterday: 59 °F (at 2:56 pm)
Minimum temperature yesterday: 46 °F (at 2:56 am)
Average temperature yesterday: 53 °F

High & Low Weather Summary for the Past Weeks

 TemperatureHumidityPressure
High74 °F (Mar 18, 2:56 pm)100% (Mar 23, 2:23 am)30.30 "Hg (Mar 23, 2:23 am)
Low40 °F (Mar 11, 5:56 am)25% (Mar 19, 1:56 pm)29.80 "Hg (Mar 19, 4:56 pm)
Average54 °F67%30.07 "Hg
* Reported Mar 8 7:56 am — Mar 23 8:56 am, Cupertino. Weather by CustomWeather, © 2019

Note: Actual official high and low records may vary slightly from our data, if they occured in-between our weather recording intervals... More about our weather records

Advertising

Cupertino Weather History for the Previous 24 Hours

Scroll right to see more
 ConditionsComfort  
Time TempWeatherWind HumidityBarometerVisibility
8:56 am
Sat, Mar 23
54 °FBroken clouds.3 mph83%30.20 "Hg10 mi
7:56 am53 °FOvercast.5 mph96%30.18 "Hg10 mi
7:28 am53 °FMostly cloudy.3 mph100%30.16 "Hg10 mi
6:56 am53 °FOvercast.No wind100%30.16 "Hg10 mi
5:56 am53 °FOvercast.No wind100%30.15 "Hg10 mi
4:56 am53 °FLight rain. Overcast.6 mph100%30.14 "Hg10 mi
3:56 am53 °FLight rain. Overcast.No wind100%30.15 "Hg8 mi
2:56 am54 °FLight rain. Overcast.3 mph100%30.15 "Hg9 mi
2:23 am54 °FRain. Fog.5 mph100%30.15 "Hg4 mi
1:56 am54 °FLight rain. Mostly cloudy.6 mph97%30.15 "Hg8 mi
12:56 am54 °FLight rain. Fog.5 mph93%30.15 "Hg6 mi
11:56 pm
Fri, Mar 22
54 °FLight rain. Overcast.6 mph93%30.16 "Hg10 mi
10:56 pm55 °FLight rain. Mostly cloudy.7 mph87%30.16 "Hg10 mi
9:56 pm56 °FMostly cloudy.10 mph84%30.15 "Hg10 mi
8:56 pm55 °FOvercast.7 mph90%30.16 "Hg10 mi
7:56 pm56 °FMostly cloudy.8 mph87%30.16 "Hg10 mi
6:56 pm55 °FLight rain. Mostly cloudy.7 mph90%30.16 "Hg10 mi
5:56 pm56 °FLight rain. Mostly cloudy.10 mph87%30.16 "Hg10 mi
4:56 pm56 °FLight rain. Mostly cloudy.8 mph84%30.17 "Hg10 mi
3:56 pm57 °FLight rain. Mostly cloudy.9 mph78%30.18 "Hg8 mi
2:56 pm59 °FBroken clouds.10 mph64%30.18 "Hg10 mi
1:56 pm58 °FMostly cloudy.13 mph75%30.19 "Hg10 mi
12:56 pm58 °FPartly sunny.9 mph70%30.20 "Hg10 mi
11:56 am57 °FSunny.10 mph69%30.20 "Hg10 mi
10:56 am55 °FScattered clouds.10 mph74%30.20 "Hg10 mi
Weather by CustomWeather, © 2019

See weather overview